WetterOnline ( https://www.wetteronline.de )

Wetter aktuell Regensburg

Aktuelles Wetter: Regensburg/Oberhub (371m)

6-stündlich | Neueste Meldungen
Ortszeit Temperatur Wetter
Sa, 17.08. 14:00 22.9° C bedeckt
Sa, 17.08. 8:00 14.5° C wolkig
Sa, 17.08. 2:00 12.0° C wolkenlos
Fr, 16.08. 20:00 20.5° C wolkenlos
Fr, 16.08. 14:00 21.7° C bedeckt
Fr, 16.08. 8:00 15.0° C leicht bewölkt
Fr, 16.08. 2:00 15.1° C fast wolkenlos
Do, 15.08. 20:00 17.3° C leicht bewölkt
Ortszeit Temperatur Wetter
Sa, 17.08. 19:00 22.1° C bewölkt
Sa, 17.08. 18:40 22.2° C bedeckt
Sa, 17.08. 18:30 22.6° C bedeckt
Sa, 17.08. 18:20 22.6° C bedeckt
Sa, 17.08. 18:10 22.7° C bedeckt
Sa, 17.08. 18:00 22.9° C bedeckt
Sa, 17.08. 17:50 22.9° C bedeckt
Sa, 17.08. 17:30 23.0° C leichter Regen
Sa, 17.08. 17:00 23.2° C bedeckt
Sa, 17.08. 16:30 23.1° C bedeckt
Sa, 17.08. 16:00 23.4° C bedeckt
Ortszeit Relative Feuchte Sichtweite
Sa, 17.08. 14:00 56% 40 km
Sa, 17.08. 8:00 78% 45 km
Sa, 17.08. 2:00 95% 50 km
Fr, 16.08. 20:00 46% >70 km
Fr, 16.08. 14:00 54% 50 km
Fr, 16.08. 8:00 88% 65 km
Fr, 16.08. 2:00 90% 65 km
Do, 15.08. 20:00 84% >70 km
Ortszeit Relative Feuchte Sichtweite
Sa, 17.08. 19:00 65% 45 km
Sa, 17.08. 18:40 65% -
Sa, 17.08. 18:30 63% >70 km
Sa, 17.08. 18:20 63% -
Sa, 17.08. 18:10 61% -
Sa, 17.08. 18:00 61% 50 km
Sa, 17.08. 17:50 61% -
Sa, 17.08. 17:30 55% 35 km
Sa, 17.08. 17:00 54% 55 km
Sa, 17.08. 16:30 53% 65 km
Sa, 17.08. 16:00 55% >70 km
Ortszeit Niederschlagsmenge Niederschlagsart
Sa, 17.08. 14:00 0.0 l/m2 in 6 Std. -
Sa, 17.08. 8:00 0.0 l/m2 in 12 Std. -
Sa, 17.08. 2:00 0.0 l/m2 in 6 Std. -
Fr, 16.08. 20:00 0.0 l/m2 in 12 Std. -
Fr, 16.08. 14:00 0.0 l/m2 in 6 Std. -
Fr, 16.08. 8:00 0.0 l/m2 in 12 Std. -
Fr, 16.08. 2:00 0.0 l/m2 in 6 Std. -
Do, 15.08. 20:00 1 l/m2 in 12 Std. Regen
Ortszeit Niederschlagsmenge Niederschlagsart
Sa, 17.08. 19:00 0.1 l/m2 in 1 Std. Regen
Sa, 17.08. 18:40 keine Meldung -
Sa, 17.08. 18:30 0.0 l/m2 in 1 Std. -
Sa, 17.08. 18:20 keine Meldung -
Sa, 17.08. 18:10 keine Meldung -
Sa, 17.08. 18:00 0.1 l/m2 in 1 Std. Regen
Sa, 17.08. 17:50 keine Meldung -
Sa, 17.08. 17:30 0.1 l/m2 in 1 Std. -
Sa, 17.08. 17:00 0.1 l/m2 in 1 Std. Regen
Sa, 17.08. 16:30 0.1 l/m2 in 1 Std. Schneeregen
Sa, 17.08. 16:00 0.1 l/m2 in 1 Std. Regen
Ortszeit Stärke Spitze Richtung
km/h Bft. km/h Grad Sektor
Sa, 17.08. 14:00 7 2 26 130° SO
Sa, 17.08. 8:00 13 3 22 130° SO
Sa, 17.08. 2:00 4 1 7 150° SO
Fr, 16.08. 20:00 4 1 25 10° N
Fr, 16.08. 14:00 9 2 30 300° NW
Fr, 16.08. 8:00 7 2 14 240° SW
Fr, 16.08. 2:00 6 1 19 220° SW
Do, 15.08. 20:00 7 2 32 210° SW
Ortszeit Stärke Spitze Richtung
km/h Bft. km/h Grad Sektor
Sa, 17.08. 19:00 7 2 18 120° SO
Sa, 17.08. 18:40 7 2 - - -
Sa, 17.08. 18:30 9 2 17 - -
Sa, 17.08. 18:20 9 2 - - -
Sa, 17.08. 18:10 11 2 - - -
Sa, 17.08. 18:00 4 1 14 190° S
Sa, 17.08. 17:50 4 1 - - -
Sa, 17.08. 17:30 6 1 15 - -
Sa, 17.08. 17:00 7 2 20 180° S
Sa, 17.08. 16:30 9 2 19 - -
Sa, 17.08. 16:00 9 2 24 180° S
Ortszeit Untergrenze Bedeckung Gattung
total tief tief mittel hoch
Sa, 17.08. 14:00 3600 m - 8/8 - - -
Sa, 17.08. 8:00 4500 m - 5/8 - - -
Sa, 17.08. 2:00 8100 m - 0/8 - - -
Fr, 16.08. 20:00 7200 m - 0/8 - - -
Fr, 16.08. 14:00 1230 m - 8/8 - - -
Fr, 16.08. 8:00 2100 m - 2/8 - - -
Fr, 16.08. 2:00 1500 m - 1/8 - - -
Do, 15.08. 20:00 2400 m - 2/8 - - -
Ortszeit Bedeckungsgrad in Achtel und Wolkenuntergrenze
Sa, 17.08. 19:00 1(2100m) 7(2700m) 8(3300m)
Sa, 17.08. 18:40 8(2700m) 8(3000m) 8(3900m)
Sa, 17.08. 18:30 8(2700m) 8(3300m)
Sa, 17.08. 18:20 8(2700m) 8(3300m)
Sa, 17.08. 18:10 8(2400m)
Sa, 17.08. 18:00 8(2400m) 8(4500m)
Sa, 17.08. 17:50 8(2400m) 8(4500m)
Sa, 17.08. 17:30 8(2700m) 8(3300m)
Sa, 17.08. 17:00 8(2700m)
Sa, 17.08. 16:30 8(2700m)
Sa, 17.08. 16:00 1(2100m) 8(2700m) 8(3600m)
Ortszeit Luftdruck NN (hPa) Tendenz (hPa in 3 Std.)
Sa, 17.08. 14:00 1014 - 0,5
Sa, 17.08. 8:00 1016 - 0,1
Sa, 17.08. 2:00 1017 - 0,8
Fr, 16.08. 20:00 1016 - 0,6
Fr, 16.08. 14:00 1018 - 0,9
Fr, 16.08. 8:00 1019 + 0,8
Fr, 16.08. 2:00 1018 + 0,9
Do, 15.08. 20:00 1014 + 0,1
Ortszeit Luftdruck NN (hPa) Tendenz (hPa in 3 Std.)
Sa, 17.08. 19:00 1013 - 0,3
Sa, 17.08. 18:40 1013 keine Meldung
Sa, 17.08. 18:30 1013 - 0,5
Sa, 17.08. 18:20 1013 keine Meldung
Sa, 17.08. 18:10 1012 keine Meldung
Sa, 17.08. 18:00 1012 - 1,0
Sa, 17.08. 17:50 1012 keine Meldung
Sa, 17.08. 17:30 1013 - 1,1
Sa, 17.08. 17:00 1013 - 1,2
Sa, 17.08. 16:30 1013 - 1,1
Sa, 17.08. 16:00 1013 - 1,4
Ortszeit Schneehöhe (cm)
Sa, 17.08. 14:00 -
Sa, 17.08. 8:00 -
Sa, 17.08. 2:00 -
Fr, 16.08. 20:00 -
Fr, 16.08. 14:00 -
Fr, 16.08. 8:00 -
Fr, 16.08. 2:00 -
Do, 15.08. 20:00 -
Ortszeit Schneehöhe (cm)
Sa, 17.08. 19:00 -
Sa, 17.08. 18:40 -
Sa, 17.08. 18:30 -
Sa, 17.08. 18:20 -
Sa, 17.08. 18:10 -
Sa, 17.08. 18:00 -
Sa, 17.08. 17:50 -
Sa, 17.08. 17:30 -
Sa, 17.08. 17:00 -
Sa, 17.08. 16:30 -
Sa, 17.08. 16:00 -
Link zu dieser Seite / Seite empfehlen

Das Wetter in ...